[[{"header":{"parameterUnit":"m.s-1","parameterCategory":1,"la1":30.2991,"la2":30.254,"lo1":-89.0895,"lo2":-89.0444,"dy":0.0017,"dx":0.0017,"nx":28,"ny":28,"refTime":"2024-06-20T03:00:00:Z","depth":0,"parameterNumber":2,"parameterNumberName":"U-component_of_WINDS"},"data":[0,0,0,0,0,0,0,0,0,0,0,0,0,0,0,0,0,0,0,0,0,0,0,0,0,0,0,0,0,0,0,0,0,0,0,0,0,0,0,0,0,0,0,0,0,0,0,0,0,0,0,0,0,0,0,0,0,0,-4.7508,-4.7509,0,-4.7565,-4.7565,-4.7566,-4.7445,-4.7441,-4.7438,-4.7434,-4.749,-4.7495,-4.75,0,0,0,0,0,0,0,0,0,0,0,0,0,-4.7292,-4.7296,-4.7508,-4.7509,-4.751,-4.7565,-4.7565,-4.7566,-4.7446,-4.7441,-4.7437,-4.7432,-4.7489,-4.7495,-4.7501,0,0,0,0,0,0,0,0,0,0,0,0,0,-4.7371,-4.7298,-4.7508,-4.7456,-4.7452,-4.7564,-4.7565,-4.7566,-4.7447,-4.7441,-4.7435,-4.743,-4.7486,-4.7494,-4.7502,-4.7666,0,0,-4.7525,-4.7528,0,0,0,0,0,0,0,0,-4.7366,-4.7379,-4.7463,-4.746,-4.7456,-4.7492,-4.7509,-4.76,-4.7448,-4.7449,-4.7434,-4.7427,-4.7495,-4.7502,-4.7525,-4.7669,-4.7671,-4.7526,-4.753,-4.7534,-4.7536,0,0,0,0,0,0,0,-4.7361,-4.7376,-4.753,-4.7464,-4.746,-4.7429,-4.7434,-4.7526,-4.7504,-4.7448,-4.744,-4.7448,-4.7492,-4.7518,-4.7526,-4.7672,-4.7526,-4.7532,-4.7537,-4.754,-4.7949,-4.7955,0,0,0,0,0,0,-4.7363,-4.7372,-4.7528,-4.7532,-4.7396,-4.7437,-4.7443,-4.7486,-4.7503,-4.75,-4.7453,-4.7442,-4.7508,-4.7517,-4.7527,-4.7719,-4.7534,-4.7541,-4.7545,-4.7943,-4.7951,-4.7957,0,0,0,0,0,0,-4.7358,-4.7378,-4.7526,-4.745,-4.7466,-4.7447,-4.7497,-4.749,-4.7516,-4.7507,-4.7502,-4.7484,-4.7504,-4.7517,-4.7632,-4.7719,-4.7544,-4.7551,-4.7936,-4.7945,-4.7954,-4.8105,0,0,0,0,0,0,-4.7353,-4.7377,-4.7441,-4.7452,-4.7471,-4.7632,-4.7503,-4.7496,-4.753,-4.7517,-4.7534,-4.7532,-4.75,-4.7621,-4.764,-4.7727,-4.7557,-4.7928,-4.794,-4.7951,-4.8092,-4.8119,-4.8141,0,0,0,0,0,-4.7345,-4.7481,-4.7445,-4.7464,-4.755,-4.7637,-4.7648,-4.7609,-4.7538,-4.7601,-4.7594,-4.7531,-4.7707,-4.7634,-4.7654,-4.7745,-4.7922,-4.7937,-4.795,-4.8082,-4.8114,-4.8141,0,0,0,0,0,0,-4.7481,-4.7482,-4.7441,-4.7585,-4.7612,-4.7617,-4.7695,-4.7645,-4.7692,-4.7677,-4.7627,-4.7632,-4.7756,-4.7762,-4.7681,-4.7903,-4.7802,-4.7821,-4.7895,-4.7925,-4.7949,-4.7945,-4.7564,0,0,0,0,0,-4.7528,-4.7599,-4.7596,-4.7723,-4.7738,-4.7715,-4.7751,-4.7719,-4.7744,-4.7755,-4.7756,-4.7783,-4.7843,-4.7885,-4.794,-4.8092,-4.8093,-4.8164,-4.8188,-4.8209,-4.8225,-4.8303,-4.8334,-4.8004,-4.8004,-4.8003,0,0,-4.7625,-4.7634,-4.7683,-4.7751,-4.7767,-4.7841,-4.7725,-4.7809,-4.7862,-4.7767,-4.7876,-4.7878,-4.7904,-4.8038,-4.8096,-4.8046,-4.8317,-4.8226,-4.8243,-4.8248,-4.8321,-4.8352,-4.838,-4.8013,-4.8011,-4.801,0,0,-4.784,-4.7855,-4.7961,-4.798,-4.8007,-4.7989,-4.8015,-4.8027,-4.8024,-4.8132,-4.8062,-4.8124,-4.823,-4.8251,-4.8275,-4.8494,-4.8437,-4.8513,-4.8641,-4.8717,-4.8743,-4.8766,-4.8843,-4.8871,-4.853,-4.853,-4.853,0,-4.7958,-4.8067,-4.8022,-4.811,-4.8141,-4.8057,-4.8163,-4.8183,-4.8227,-4.825,-4.8192,-4.8322,-4.8333,-4.8469,-4.8522,-4.8546,-4.8571,-4.8511,-4.8743,-4.8766,-4.8786,-4.8859,-4.8888,-4.8539,-4.8538,-4.8537,-4.8536,0,-4.8209,-4.8285,-4.8367,-4.8411,-4.8451,-4.8547,-4.8516,-4.8561,-4.8525,-4.8513,-4.8622,-4.8633,-4.8688,-4.8717,-4.8683,-4.8848,-4.8815,-4.8752,-4.8649,-4.8828,-4.8894,-4.8922,-4.8552,-4.8549,-4.8546,-4.8544,0,0,-4.8513,-4.8528,-4.8559,-4.8576,-4.8598,-4.8656,-4.8747,-4.88,-4.8839,-4.8871,-4.8945,-4.9036,-4.8976,-4.9003,-4.897,-4.9038,-4.9207,-4.8965,-4.8964,-4.9008,-4.9387,-4.9435,-4.9468,-4.917,-4.9175,-4.9179,-4.9385,0,-4.8724,-4.8882,-4.8843,-4.8999,-4.9067,-4.8987,-4.9066,-4.9087,-4.9078,-4.9133,-4.9122,-4.9187,-4.9104,-4.9119,-4.9182,-4.9174,-4.9283,-4.9158,-4.9237,-4.924,-4.9233,-4.9503,-4.9554,-4.9748,-4.9411,-4.9415,-4.9418,0,-4.8993,-4.9034,-4.9196,-4.9204,-4.9231,-4.9303,-4.9347,-4.9402,-4.9423,-4.9411,-4.9441,-4.9393,-4.9481,-4.9377,-4.9497,-4.9413,-4.9442,-4.9442,-4.9449,-4.9454,-4.934,-4.9515,-4.9809,-4.9838,-4.9459,-4.9456,-4.9453,0,-4.9196,-4.9292,-4.9401,-4.9418,-4.9431,-4.9483,-4.949,-4.9505,-4.9538,-4.9577,-4.9597,-4.9646,-4.9672,-4.971,-4.9675,-4.9604,-4.9799,-4.9694,-4.9791,-4.9792,-4.9836,-4.9833,-5.0138,-4.9856,-4.9856,-4.9855,-4.9855,0,-4.9436,-4.9538,-4.9492,-4.956,-4.967,-4.9623,-4.9734,-4.9732,-4.9746,-4.9809,-4.9743,-4.9804,-4.9756,-4.9812,-4.9785,-4.9887,-4.99,-4.9891,-4.9883,-4.9897,-4.9898,-4.9916,-4.9901,-4.9863,-4.9861,-4.986,-4.9858,0,-4.9683,-4.9656,-4.9769,-4.977,-4.9773,-4.9855,-4.9855,-4.9916,-4.99,-4.9982,-4.9998,-4.9974,-5.0037,-5.0006,-5.0071,-5.0053,-5.0184,-5.0158,-5.0177,-5.017,-5.0268,-5.0259,-5.0594,-5.0635,-5.0328,-5.0331,-5.0334,0,-4.9837,-4.9914,-4.9923,-4.996,-4.9972,-5.0034,-5.0067,-5.0023,-5.006,-5.0088,-5.0146,-5.0202,-5.0245,-5.0348,-5.0336,-5.0385,-5.0359,-5.0473,-5.0366,-5.0377,-5.0359,-5.0355,-5.0361,-5.0494,-5.0498,-5.0501,-5.0503,0,-5.0114,-5.0096,-5.0147,-5.0193,-5.0235,-5.0269,-5.0297,-5.0332,-5.0288,-5.0333,-5.0396,-5.0429,-5.0494,-5.0551,-5.0593,-5.0598,-5.0544,-5.0537,-5.0562,-5.0577,-5.0584,-5.058,-5.0235,-5.053,-5.0527,-5.0525,-5.0524,-5.0523,-5.0318,-5.0382,-5.0397,-5.0455,-5.0471,-5.0498,-5.0555,-5.0546,-5.0598,-5.0647,-5.0618,-5.0691,-5.0706,-5.0757,-5.0769,-5.0825,-5.0779,-5.0816,-5.0825,-5.0834,-5.0847,-5.0576,-5.0833,-5.0832,-5.0831,-5.083,-5.083,0,-5.059,-5.0595,-5.0649,-5.069,-5.0735,-5.0679,-5.0707,-5.0748,-5.0813,-5.0833,-5.0876,-5.0946,-5.1,-5.0991,-5.1039,-5.1085,-5.1061,-5.1099,-5.1095,-5.1097,-5.0886,-5.0859,-5.1118,-5.1118,-5.1118,-5.1118,-5.1118,-5.1118,-5.0737,-5.084,-5.0824,-5.0933,-5.0937,-5.1008,-5.1028,-5.1052,-5.1067,-5.1149,-5.1193,-5.1187,-5.1194,-5.1242,-5.1288,-5.1283,-5.1304,-5.1351,-5.1338,-5.1141,-5.1112,-5.1085,-5.1059,-5.1357,-5.1357,-5.1544,-5.1546,-5.1547]},{"header":{"parameterUnit":"m.s-1","parameterCategory":1,"la1":30.2991,"la2":30.254,"lo1":-89.0895,"lo2":-89.0444,"dy":0.0017,"dx":0.0017,"nx":28,"ny":28,"refTime":"2024-06-20T03:00:00:Z","depth":0,"parameterNumber":3,"parameterNumberName":"V-component_of_WINDS"},"data":[0,0,0,0,0,0,0,0,0,0,0,0,0,0,0,0,0,0,0,0,0,0,0,0,0,0,0,0,0,0,0,0,0,0,0,0,0,0,0,0,0,0,0,0,0,0,0,0,0,0,0,0,0,0,0,0,0,0,-0.6263,-0.6265,0,-0.6421,-0.6423,-0.6425,-0.6488,-0.6488,-0.6488,-0.6487,-0.6658,-0.6663,-0.6668,0,0,0,0,0,0,0,0,0,0,0,0,0,-0.6024,-0.6028,-0.6263,-0.6265,-0.6267,-0.6421,-0.6423,-0.6426,-0.6489,-0.6488,-0.6488,-0.6487,-0.6657,-0.6662,-0.6668,0,0,0,0,0,0,0,0,0,0,0,0,0,-0.6149,-0.6029,-0.6263,-0.6317,-0.6323,-0.6421,-0.6423,-0.6426,-0.6489,-0.6488,-0.6487,-0.6487,-0.6655,-0.6662,-0.6669,-0.6727,0,0,-0.6692,-0.6695,0,0,0,0,0,0,0,0,-0.6142,-0.6158,-0.6307,-0.6313,-0.6321,-0.6434,-0.6402,-0.6527,-0.6489,-0.6426,-0.6487,-0.6487,-0.6585,-0.6598,-0.6629,-0.6735,-0.6743,-0.6692,-0.6697,-0.67,-0.6702,0,0,0,0,0,0,0,-0.6133,-0.6152,-0.6326,-0.6309,-0.6318,-0.6336,-0.6353,-0.6426,-0.6507,-0.6432,-0.6436,-0.6454,-0.6589,-0.6622,-0.6634,-0.6745,-0.6692,-0.6699,-0.6703,-0.6706,-0.6906,-0.6907,0,0,0,0,0,0,-0.6115,-0.6144,-0.6321,-0.6331,-0.6228,-0.6341,-0.636,-0.6399,-0.6507,-0.6522,-0.6454,-0.6456,-0.661,-0.6625,-0.664,-0.6715,-0.67,-0.6707,-0.6711,-0.6906,-0.6907,-0.6908,0,0,0,0,0,0,-0.6109,-0.613,-0.6315,-0.6239,-0.6264,-0.6345,-0.6389,-0.6402,-0.6435,-0.6524,-0.6539,-0.6473,-0.661,-0.663,-0.6704,-0.6721,-0.671,-0.6717,-0.6905,-0.6906,-0.6907,-0.6864,0,0,0,0,0,0,-0.6102,-0.6127,-0.6149,-0.6239,-0.6267,-0.6374,-0.639,-0.6406,-0.6447,-0.6451,-0.6545,-0.656,-0.6611,-0.6693,-0.6712,-0.6731,-0.6723,-0.6903,-0.6905,-0.6907,-0.6864,-0.6864,-0.6863,0,0,0,0,0,-0.6093,-0.6132,-0.6149,-0.617,-0.6295,-0.6375,-0.6391,-0.6446,-0.6448,-0.6471,-0.6528,-0.6557,-0.6716,-0.67,-0.6722,-0.6744,-0.6903,-0.6905,-0.6907,-0.6865,-0.6864,-0.6863,0,0,0,0,0,0,-0.6046,-0.6145,-0.6165,-0.6234,-0.6295,-0.6385,-0.6416,-0.6444,-0.6508,-0.6509,-0.6577,-0.6598,-0.6667,-0.6713,-0.6693,-0.6806,-0.6812,-0.6818,-0.6772,-0.6773,-0.6772,-0.676,-0.6729,0,0,0,0,0,-0.6042,-0.6096,-0.6181,-0.6234,-0.6263,-0.6334,-0.6371,-0.6407,-0.6474,-0.6501,-0.6563,-0.663,-0.6695,-0.6736,-0.6801,-0.6871,-0.6893,-0.6897,-0.6897,-0.6896,-0.6901,-0.6941,-0.6944,-0.6914,-0.6914,-0.6914,0,0,-0.6038,-0.6099,-0.6129,-0.6226,-0.6277,-0.6333,-0.6355,-0.6414,-0.6457,-0.6512,-0.6584,-0.6632,-0.6711,-0.6783,-0.6818,-0.6824,-0.6914,-0.6898,-0.6897,-0.6903,-0.6943,-0.6946,-0.6948,-0.6915,-0.6915,-0.6915,0,0,-0.6058,-0.6109,-0.6158,-0.6208,-0.6284,-0.6331,-0.6342,-0.6428,-0.6461,-0.6534,-0.6576,-0.663,-0.674,-0.6794,-0.6836,-0.6874,-0.6904,-0.6894,-0.6891,-0.693,-0.6932,-0.6934,-0.6948,-0.6952,-0.6898,-0.6898,-0.6898,0,-0.6043,-0.6126,-0.618,-0.6236,-0.6277,-0.6325,-0.6376,-0.6424,-0.6519,-0.6547,-0.6552,-0.669,-0.6747,-0.6832,-0.684,-0.6873,-0.689,-0.6884,-0.6927,-0.693,-0.6933,-0.6947,-0.6952,-0.6897,-0.6897,-0.6897,-0.6897,0,-0.6105,-0.6162,-0.6193,-0.6279,-0.6324,-0.6377,-0.6441,-0.6481,-0.6513,-0.656,-0.6635,-0.6704,-0.6783,-0.6806,-0.684,-0.6896,-0.6897,-0.6913,-0.6921,-0.6933,-0.6947,-0.6953,-0.6894,-0.6895,-0.6895,-0.6896,0,0,-0.61,-0.6213,-0.6224,-0.6263,-0.635,-0.6397,-0.6453,-0.6526,-0.6559,-0.6623,-0.6673,-0.6764,-0.6778,-0.6826,-0.6866,-0.69,-0.6925,-0.6912,-0.6915,-0.6912,-0.6992,-0.6979,-0.6984,-0.6945,-0.6947,-0.6948,-0.6986,0,-0.6132,-0.623,-0.6279,-0.6358,-0.6411,-0.6457,-0.6506,-0.6566,-0.6611,-0.6665,-0.6716,-0.6779,-0.6794,-0.6823,-0.6858,-0.6915,-0.6943,-0.6913,-0.6994,-0.6996,-0.6972,-0.6992,-0.6979,-0.7011,-0.6991,-0.6992,-0.6993,0,-0.6182,-0.6241,-0.6323,-0.6402,-0.6427,-0.6469,-0.654,-0.6591,-0.666,-0.6691,-0.6742,-0.6781,-0.6844,-0.6846,-0.6934,-0.6913,-0.6949,-0.6982,-0.6985,-0.6995,-0.6995,-0.7003,-0.7023,-0.7027,-0.7003,-0.7002,-0.7001,0,-0.617,-0.627,-0.6332,-0.6365,-0.6459,-0.6487,-0.6529,-0.6597,-0.6638,-0.6701,-0.6729,-0.68,-0.6839,-0.6894,-0.6951,-0.6948,-0.7034,-0.7041,-0.7063,-0.7061,-0.7079,-0.7077,-0.7105,-0.7102,-0.7102,-0.7102,-0.7102,0,-0.62,-0.6248,-0.6328,-0.6366,-0.6422,-0.6479,-0.6534,-0.6579,-0.6639,-0.6689,-0.6734,-0.678,-0.6853,-0.6909,-0.6955,-0.702,-0.7038,-0.7066,-0.7078,-0.7062,-0.7058,-0.7087,-0.7086,-0.7103,-0.7103,-0.7103,-0.7102,0,-0.6196,-0.6251,-0.6321,-0.6403,-0.6425,-0.6463,-0.6535,-0.6575,-0.6621,-0.6683,-0.6701,-0.6775,-0.6842,-0.6905,-0.6997,-0.7027,-0.7094,-0.7109,-0.7069,-0.7076,-0.7093,-0.7091,-0.7141,-0.7151,-0.714,-0.714,-0.714,0,-0.6211,-0.6249,-0.6334,-0.6368,-0.6408,-0.6463,-0.6504,-0.6562,-0.6604,-0.6684,-0.6715,-0.6785,-0.6844,-0.6951,-0.7015,-0.7085,-0.7102,-0.7115,-0.7113,-0.7096,-0.7102,-0.7099,-0.7103,-0.7114,-0.7114,-0.7114,-0.7114,0,-0.6233,-0.6257,-0.6313,-0.6377,-0.6424,-0.6479,-0.6535,-0.6562,-0.6631,-0.6675,-0.6743,-0.6788,-0.688,-0.695,-0.7026,-0.7072,-0.7105,-0.7113,-0.7122,-0.7106,-0.7082,-0.7095,-0.7067,-0.7112,-0.7112,-0.7112,-0.7113,-0.7113,-0.624,-0.6275,-0.6339,-0.6399,-0.6447,-0.6498,-0.6539,-0.6589,-0.6645,-0.6721,-0.6753,-0.6822,-0.6891,-0.6997,-0.7042,-0.7099,-0.7106,-0.7118,-0.7122,-0.7124,-0.712,-0.7072,-0.7113,-0.7113,-0.7114,-0.7114,-0.7114,0,-0.6263,-0.6306,-0.6361,-0.6436,-0.6483,-0.6506,-0.657,-0.6609,-0.6667,-0.6727,-0.6783,-0.6861,-0.6929,-0.6997,-0.7068,-0.7101,-0.7118,-0.7118,-0.7116,-0.7126,-0.711,-0.7095,-0.7103,-0.7103,-0.7103,-0.7103,-0.7103,-0.7103,-0.6281,-0.6341,-0.6373,-0.6458,-0.6502,-0.6567,-0.6601,-0.6649,-0.6697,-0.6781,-0.6835,-0.6878,-0.6942,-0.7018,-0.7081,-0.71,-0.7125,-0.712,-0.7143,-0.7127,-0.7127,-0.7128,-0.7114,-0.7125,-0.7125,-0.7154,-0.7155,-0.7155]}]]